EW4258 Weather Reports


Display with metric or nautical units.
time (UTC)temp
F
wind
direction
speed
MPH
gust
MPH
rain 1hr
in
rain 24hr
in
rain mn
in
humidity
%
barometer
mb
20260502163112 76 337 3.0 5.0 0.00 0.00 0.00 25 1017.8
20260502162112 76 360 3.0 4.0 0.00 0.00 0.00 25 1017.9
20260502161112 76 337 3.0 5.0 0.00 0.00 0.00 25 1017.9
20260502160111 76 337 3.0 4.0 0.00 0.00 0.00 25 1017.9
20260502152112 76 135 1.0 2.0 0.00 0.00 0.00 25 1018.4
20260502151111 76 315 1.0 2.0 0.00 0.00 0.00 25 1018.4
20260502150111 76 247 1.0 4.0 0.00 0.00 0.00 25 1018.6
20260502140111 77 112 3.0 6.0 0.00 0.00 0.00 25 1019.2
20260502122115 75 202 2.0 1.0 0.00 0.00 0.00 25 1020.3
20260502121115 74 180 1.0 0.0 0.00 0.00 0.00 25 1020.3
20260502120115 74 135 2.0 1.0 0.00 0.00 0.00 26 1020.7
20260502115114 73 360 2.0 3.0 0.00 0.00 0.00 26 1020.7
20260502114114 73 247 2.0 3.0 0.00 0.00 0.00 27 1020.9
20260502113114 72 247 2.0 2.0 0.00 0.00 0.00 27 1020.9
20260502112114 71 247 2.0 2.0 0.00 0.00 0.00 28 1021.3
20260502111114 71 135 1.0 3.0 0.00 0.00 0.00 28 1021.3
20260502110116 69 90 1.0 1.0 0.00 0.00 0.00 33 1021.6
20260502105114 69 225 2.0 4.0 0.00 0.00 0.00 34 1021.6
20260502104114 68 225 1.0 2.0 0.00 0.00 0.00 35 1021.9
20260502103114 68 135 1.0 1.0 0.00 0.00 0.00 36 1021.9
20260502102114 67 202 2.0 3.0 0.00 0.00 0.00 37 1022.1
20260502101114 66 180 1.0 3.0 0.00 0.00 0.00 37 1022.1
20260502100114 65 112 1.0 0.0 0.00 0.00 0.00 37 1022.4
20260502091113 61 45 0.0 2.0 0.00 0.00 0.00 39 1022.9
20260502090113 60 225 2.0 2.0 0.00 0.00 0.00 40 1023.4
20260502071112 52 90 0.0 1.0 0.00 0.00 0.00 43 1024.6
20260502070113 51 180 0.0 0.0 0.00 0.00 0.00 43 1024.7
20260502065112 51 292 0.0 0.0 0.00 0.00 0.00 43 1024.7
20260502064112 51 360 0.0 1.0 0.00 0.00 0.00 45 1025.0
20260502063112 50 315 0.0 2.0 0.00 0.00 0.00 46 1025.0
20260502062112 48 360 0.0 0.0 0.00 0.00 0.00 48 1025.0
20260502061112 46 157 1.0 0.0 0.00 0.00 0.00 50 1025.0
20260502060111 45 67 0.0 1.0 0.00 0.00 0.00 50 1025.1
20260502055111 44 202 0.0 0.0 0.00 0.00 0.00 52 1025.1
20260502052111 38 180 0.0 0.0 0.00 0.00 0.00 54 1025.0
20260502051111 36 157 0.0 0.0 0.00 0.00 0.00 54 1025.0
20260502050111 36 67 0.0 0.0 0.00 0.00 0.00 54 1024.9
20260502045111 36 180 0.0 0.0 0.00 0.00 0.00 54 1024.9
20260502044112 36 135 0.0 0.0 0.00 0.00 0.00 52 1024.8
20260502043111 36 67 0.0 0.0 0.00 0.00 0.00 53 1024.8
20260502042111 37 90 0.0 0.0 0.00 0.00 0.00 53 1025.0
20260502041111 37 135 0.0 0.0 0.00 0.00 0.00 52 1025.0
20260502040112 36 157 0.0 0.0 0.00 0.00 0.00 52 1024.8
20260501220114 47 67 0.0 0.0 0.00 0.00 0.00 40 1024.9
20260501215114 47 157 0.0 0.0 0.00 0.00 0.00 40 1024.9
20260501214114 48 135 0.0 0.0 0.00 0.00 0.00 39 1024.8
20260501212114 49 180 0.0 0.0 0.00 0.00 0.00 38 1024.7
20260501211113 50 112 0.0 0.0 0.00 0.00 0.00 37 1024.7
20260501210113 50 135 0.0 0.0 0.00 0.00 0.00 37 1024.8
20260501205113 51 90 0.0 0.0 0.00 0.00 0.00 36 1024.8
20260501204113 51 157 0.0 0.0 0.00 0.00 0.00 34 1024.4
20260501203113 52 90 0.0 0.0 0.00 0.00 0.00 34 1024.4
20260501202113 53 202 0.0 0.0 0.00 0.00 0.00 33 1024.3
20260501201113 54 360 0.0 0.0 0.00 0.00 0.00 32 1024.3
20260501200113 55 135 0.0 0.0 0.00 0.00 0.00 31 1024.1
20260501195114 56 202 0.0 0.0 0.00 0.00 0.00 29 1024.1
20260501194113 57 202 1.0 0.0 0.00 0.00 0.00 28 1023.9
20260501193113 58 135 1.0 0.0 0.00 0.00 0.00 27 1023.9
20260501192113 59 157 1.0 1.0 0.00 0.00 0.00 27 1023.8
20260501191113 60 292 2.0 0.0 0.00 0.00 0.00 26 1023.8
20260501184112 61 22 3.0 4.0 0.00 0.00 0.00 26 1023.2
20260501183112 61 360 3.0 2.0 0.00 0.00 0.00 26 1023.2
20260501181112 62 337 4.0 5.0 0.00 0.00 0.00 25 1023.1
20260501180112 63 292 4.0 6.0 0.00 0.00 0.00 25 1022.7
20260501175112 63 360 4.0 7.0 0.00 0.00 0.00 25 1022.7
20260501174113 64 22 4.0 6.0 0.00 0.00 0.00 25 1022.7
20260501173112 65 292 5.0 8.0 0.00 0.00 0.00 25 1022.7
20260501171112 66 315 6.0 6.0 0.00 0.00 0.00 25 1022.4
20260501170112 66 337 5.0 8.0 0.00 0.00 0.00 25 1022.3
20260501164112 67 360 5.0 7.0 0.00 0.00 0.00 25 1022.3